DW4381 Weather Reports


Display with metric or nautical units.
time (UTC)temp
F
wind
direction
speed
MPH
gust
MPH
rain 1hr
in
rain 24hr
in
rain mn
in
humidity
%
barometer
mb
20210728075133 63 10 2.0 12.0 0.00 0.00 0.00 50 1030.7
20210728074633 63 10 3.0 10.0 0.00 0.00 0.00 49 1030.7
20210728074133 63 10 7.0 8.0 0.00 0.00 0.00 50 1030.8
20210728073633 63 10 2.0 11.0 0.00 0.00 0.00 50 1030.9
20210728073133 63 10 6.0 10.0 0.00 0.00 0.00 50 1030.9
20210728072633 62 10 1.0 11.0 0.00 0.00 0.00 50 1030.9
20210728072133 62 10 2.0 9.0 0.00 0.00 0.00 51 1031.1
20210728071633 62 10 1.0 11.0 0.00 0.00 0.00 51 1031.2
20210728071133 63 10 3.0 5.0 0.00 0.00 0.00 51 1031.3
20210728070633 63 10 0.0 0.0 0.00 0.00 0.00 51 1031.5
20210728070133 63 10 0.0 0.0 0.00 0.00 0.00 51 1031.6
20210728065633 63 10 0.0 5.0 0.00 0.00 0.00 51 1031.8
20210728065133 63 10 1.0 6.0 0.00 0.00 0.00 51 1031.8
20210728064633 63 10 2.0 7.0 0.00 0.00 0.00 50 1032.0
20210728064133 63 10 1.0 6.0 0.00 0.00 0.00 50 1032.1
20210728063633 64 10 2.0 5.0 0.00 0.00 0.00 50 1032.3
20210728063133 64 10 3.0 6.0 0.00 0.00 0.00 49 1032.2
20210728062633 64 10 2.0 8.0 0.00 0.00 0.00 49 1032.4
20210728062133 64 10 1.0 7.0 0.00 0.00 0.00 49 1032.4
20210728061633 64 10 1.0 7.0 0.00 0.00 0.00 48 1032.5
20210728061133 64 10 2.0 6.0 0.00 0.00 0.00 48 1032.7
20210728060633 64 10 1.0 6.0 0.00 0.00 0.00 47 1032.7
20210728060133 64 10 3.0 5.0 0.00 0.00 0.00 47 1032.8
20210728055633 64 10 3.0 4.0 0.00 0.00 0.00 47 1032.7
20210728055133 64 10 3.0 4.0 0.00 0.00 0.00 47 1032.9
20210728054633 64 10 2.0 5.0 0.00 0.00 0.00 48 1033.0
20210728054133 64 10 2.0 5.0 0.00 0.00 0.00 49 1033.0
20210728053633 64 10 0.0 0.0 0.00 0.00 0.00 48 1033.0
20210728053133 64 10 0.0 0.0 0.00 0.00 0.00 48 1033.0
20210728052633 64 10 0.0 0.0 0.00 0.00 0.00 48 1033.1
20210728052133 64 10 0.0 0.0 0.00 0.00 0.00 48 1033.2
20210728051633 64 10 0.0 0.0 0.00 0.00 0.00 48 1033.2
20210728051133 64 10 0.0 0.0 0.00 0.00 0.00 47 1033.2
20210728050633 65 10 0.0 0.0 0.00 0.00 0.00 47 1033.3
20210728050133 65 10 0.0 0.0 0.00 0.00 0.00 47 1033.2
20210728045633 65 10 0.0 0.0 0.00 0.00 0.00 47 1033.3
20210728045133 65 10 0.0 0.0 0.00 0.00 0.00 47 1033.4
20210728044634 65 10 0.0 0.0 0.00 0.00 0.00 47 1033.5
20210728044133 65 10 0.0 0.0 0.00 0.00 0.00 47 1033.5
20210728043633 65 10 0.0 0.0 0.00 0.00 0.00 47 1033.6
20210728043133 65 10 0.0 0.0 0.00 0.00 0.00 47 1033.7
20210728042633 65 10 0.0 0.0 0.00 0.00 0.00 47 1033.7
20210728042133 65 10 0.0 0.0 0.00 0.00 0.00 47 1033.8
20210728041633 65 10 0.0 0.0 0.00 0.00 0.00 47 1033.8
20210728041133 65 10 0.0 0.0 0.00 0.00 0.00 46 1033.9
20210728040633 65 10 0.0 0.0 0.00 0.00 0.00 45 1033.8
20210728040133 65 10 0.0 0.0 0.00 0.00 0.00 44 1033.9
20210728035633 66 10 0.0 0.0 0.00 0.00 0.00 44 1034.0
20210728035133 66 10 0.0 0.0 0.00 0.00 0.00 43 1034.0
20210728034633 66 10 0.0 0.0 0.00 0.00 0.00 41 1034.0
20210728034134 66 10 0.0 0.0 0.00 0.00 0.00 42 1034.1
20210728033633 66 10 0.0 0.0 0.00 0.00 0.00 42 1034.0
20210728033134 66 10 0.0 0.0 0.00 0.00 0.00 40 1034.0
20210728032633 66 10 0.0 0.0 0.00 0.00 0.00 39 1034.1
20210728032134 66 10 0.0 0.0 0.00 0.00 0.00 38 1034.0
20210728031646 67 10 0.0 0.0 0.00 0.00 0.00 36 1034.0
20210728031133 67 10 0.0 0.0 0.00 0.00 0.00 36 1034.0
20210728030633 67 10 0.0 0.0 0.00 0.00 0.00 36 1033.9
20210728030133 67 10 0.0 0.0 0.00 0.00 0.00 35 1033.9
20210728025633 67 10 0.0 0.0 0.00 0.00 0.00 35 1033.9
20210728025133 67 10 0.0 0.0 0.00 0.00 0.00 35 1033.7
20210728024633 68 10 0.0 0.0 0.00 0.00 0.00 35 1033.6
20210728024133 68 10 0.0 0.0 0.00 0.00 0.00 35 1033.6
20210728023634 68 10 0.0 0.0 0.00 0.00 0.00 34 1033.6
20210728023133 69 10 0.0 0.0 0.00 0.00 0.00 34 1033.6
20210728022633 69 10 0.0 0.0 0.00 0.00 0.00 33 1033.5
20210728022133 70 10 0.0 0.0 0.00 0.00 0.00 33 1033.5
20210728021633 70 10 0.0 0.0 0.00 0.00 0.00 33 1033.6
20210728021133 71 10 0.0 0.0 0.00 0.00 0.00 32 1033.5
20210728020633 71 10 0.0 0.0 0.00 0.00 0.00 32 1033.6
20210728020133 71 10 0.0 0.0 0.00 0.00 0.00 32 1033.5
20210728015633 72 10 0.0 0.0 0.00 0.00 0.00 31 1033.5
20210728015133 72 10 0.0 0.0 0.00 0.00 0.00 30 1033.5
20210728014633 73 10 0.0 0.0 0.00 0.00 0.00 30 1033.5
20210728014133 73 10 0.0 6.0 0.00 0.00 0.00 30 1033.5
20210728013633 73 10 0.0 5.0 0.00 0.00 0.00 30 1033.5
20210728013133 73 10 0.0 5.0 0.00 0.00 0.00 30 1033.4
20210728012633 73 10 0.0 0.0 0.00 0.00 0.00 30 1033.4
20210728012133 73 10 0.0 1.0 0.00 0.00 0.00 30 1033.3
20210728011633 73 10 0.0 5.0 0.00 0.00 0.00 30 1033.3
20210728011133 73 10 0.0 7.0 0.00 0.00 0.00 29 1033.3
20210728010633 74 10 0.0 5.0 0.00 0.00 0.00 29 1033.2
20210728010133 74 10 0.0 9.0 0.00 0.00 0.00 28 1033.3
20210728005633 74 10 4.0 8.0 0.00 0.00 0.00 28 1033.2
20210728005133 74 10 0.0 7.0 0.00 0.00 0.00 27 1033.3
20210728004633 74 10 4.0 8.0 0.00 0.00 0.00 26 1033.1
20210728004133 74 10 0.0 6.0 0.00 0.00 0.00 26 1033.1
20210728003633 75 10 0.0 7.0 0.00 0.00 0.00 25 1033.0
20210728003133 75 10 9.0 9.0 0.00 0.00 0.00 25 1033.0
20210728002633 75 10 2.0 7.0 0.00 0.00 0.00 23 1033.0
20210728002133 76 10 0.0 5.0 0.00 0.00 0.00 23 1032.9
20210728001633 75 10 0.0 8.0 0.00 0.00 0.00 23 1032.8
20210728001133 75 94 7.0 8.0 0.00 0.00 0.00 24 1032.7
20210728000633 76 10 0.0 6.0 0.00 0.00 0.00 23 1032.6
20210728000133 76 10 0.0 7.0 0.00 0.00 0.00 24 1032.6
20210727235633 75 10 0.0 11.0 0.00 0.00 0.00 23 1032.6
20210727235133 76 10 7.0 10.0 0.00 0.00 0.00 23 1032.5
20210727234633 76 10 3.0 7.0 0.00 0.00 0.00 23 1032.5
20210727234133 76 10 5.0 10.0 0.00 0.00 0.00 23 1032.4
20210727233633 76 10 0.0 5.0 0.00 0.00 0.00 23 1032.3
20210727233133 76 10 3.0 10.0 0.00 0.00 0.00 22 1032.4
20210727232633 76 10 4.0 9.0 0.00 0.00 0.00 24 1032.2
20210727232133 76 10 0.0 9.0 0.00 0.00 0.00 23 1032.1
20210727231633 76 10 9.0 12.0 0.00 0.00 0.00 23 1032.0
20210727231133 77 10 4.0 9.0 0.00 0.00 0.00 23 1032.0
20210727230633 77 10 6.0 7.0 0.00 0.00 0.00 22 1032.0
20210727230133 77 10 6.0 9.0 0.00 0.00 0.00 23 1031.8
20210727225633 77 10 3.0 10.0 0.00 0.00 0.00 22 1031.8
20210727225133 77 10 1.0 7.0 0.00 0.00 0.00 21 1031.7
20210727224634 77 10 2.0 8.0 0.00 0.00 0.00 23 1031.6
20210727224133 77 10 2.0 11.0 0.00 0.00 0.00 23 1031.5
20210727223633 78 10 11.0 11.0 0.00 0.00 0.00 24 1031.5
20210727223133 78 10 0.0 7.0 0.00 0.00 0.00 23 1031.4
20210727222633 78 10 0.0 9.0 0.00 0.00 0.00 21 1031.4
20210727222133 78 10 4.0 8.0 0.00 0.00 0.00 21 1031.4
20210727221633 78 10 7.0 7.0 0.00 0.00 0.00 21 1031.2
20210727221133 77 10 0.0 6.0 0.00 0.00 0.00 23 1031.1
20210727220633 77 10 0.0 9.0 0.00 0.00 0.00 23 1031.1
20210727220133 77 10 1.0 10.0 0.00 0.00 0.00 22 1031.0
20210727215633 77 10 5.0 10.0 0.00 0.00 0.00 22 1030.9
20210727215133 77 10 0.0 11.0 0.00 0.00 0.00 23 1030.9
20210727214633 77 10 3.0 11.0 0.00 0.00 0.00 23 1030.9
20210727214133 77 10 4.0 10.0 0.00 0.00 0.00 25 1030.8
20210727213633 77 10 5.0 14.0 0.00 0.00 0.00 23 1030.8
20210727213133 77 10 3.0 9.0 0.00 0.00 0.00 23 1030.7
20210727212633 77 10 3.0 10.0 0.00 0.00 0.00 23 1030.7
20210727212133 77 10 2.0 10.0 0.00 0.00 0.00 23 1030.6
20210727211633 77 10 2.0 13.0 0.00 0.00 0.00 23 1030.5
20210727211133 77 40 0.0 12.0 0.00 0.00 0.00 23 1030.5
20210727210633 77 10 3.0 10.0 0.00 0.00 0.00 23 1030.4
20210727210133 77 10 1.0 9.0 0.00 0.00 0.00 22 1030.3
20210727205633 77 86 5.0 12.0 0.00 0.00 0.00 23 1030.2
20210727205133 77 10 4.0 12.0 0.00 0.00 0.00 22 1030.1
20210727204633 77 10 12.0 13.0 0.00 0.00 0.00 24 1030.1
20210727204133 77 10 0.0 10.0 0.00 0.00 0.00 23 1030.0
20210727203633 77 10 5.0 10.0 0.00 0.00 0.00 23 1030.0
20210727203133 77 10 0.0 6.0 0.00 0.00 0.00 25 1029.9
20210727202633 77 10 6.0 10.0 0.00 0.00 0.00 25 1029.8
20210727202133 77 10 4.0 13.0 0.00 0.00 0.00 24 1029.9
20210727201633 77 10 2.0 8.0 0.00 0.00 0.00 24 1029.7
20210727201133 77 10 4.0 9.0 0.00 0.00 0.00 26 1029.7
20210727200633 77 21 9.0 13.0 0.00 0.00 0.00 26 1029.6
20210727200133 77 10 4.0 10.0 0.00 0.00 0.00 26 1029.5
20210727195633 77 10 0.0 7.0 0.00 0.00 0.00 26 1029.3
20210727195133 77 10 0.0 10.0 0.00 0.00 0.00 27 1029.2
20210727194633 77 10 3.0 10.0 0.00 0.00 0.00 29 1029.2
20210727194133 76 10 9.0 9.0 0.00 0.00 0.00 31 1029.2
20210727193633 76 10 0.0 12.0 0.00 0.00 0.00 30 1029.2
20210727193133 76 10 0.0 12.0 0.00 0.00 0.00 28 1029.1
20210727192633 77 10 4.0 9.0 0.00 0.00 0.00 29 1029.0
20210727192133 77 10 3.0 9.0 0.00 0.00 0.00 28 1028.9
20210727191633 77 10 0.0 11.0 0.00 0.00 0.00 27 1028.9
20210727191133 78 10 0.0 10.0 0.00 0.00 0.00 29 1028.8
20210727190633 77 10 2.0 6.0 0.00 0.00 0.00 30 1028.8
20210727190138 77 10 0.0 7.0 0.00 0.00 0.00 29 1028.7
20210727185633 77 10 0.0 5.0 0.00 0.00 0.00 27 1028.7
20210727185133 77 10 0.0 7.0 0.00 0.00 0.00 25 1028.7
20210727184633 77 10 2.0 11.0 0.00 0.00 0.00 27 1028.6
20210727184133 77 10 0.0 8.0 0.00 0.00 0.00 25 1028.6
20210727183633 77 10 3.0 6.0 0.00 0.00 0.00 28 1028.5
20210727183133 77 10 0.0 8.0 0.00 0.00 0.00 28 1028.5
20210727182633 77 27 0.0 0.0 0.00 0.00 0.00 24 1028.5
20210727182133 77 27 0.0 0.0 0.00 0.00 0.00 26 1028.5
20210727181633 76 10 0.0 8.0 0.00 0.00 0.00 28 1028.5
20210727181133 76 10 0.0 9.0 0.00 0.00 0.00 29 1028.4
20210727180633 76 10 2.0 5.0 0.00 0.00 0.00 28 1028.4
20210727180133 76 10 0.0 5.0 0.00 0.00 0.00 28 1028.4
20210727175633 76 10 0.0 5.0 0.00 0.00 0.00 27 1028.4
20210727175133 75 5 0.0 4.0 0.00 0.00 0.00 27 1028.5
20210727174633 75 10 0.0 3.0 0.00 0.00 0.00 28 1028.4
20210727174133 75 10 1.0 11.0 0.00 0.00 0.00 26 1028.4
20210727173633 75 10 0.0 7.0 0.00 0.00 0.00 28 1028.4
20210727173133 75 10 0.0 0.0 0.00 0.00 0.00 29 1028.4
20210727172633 74 10 0.0 7.0 0.00 0.00 0.00 26 1028.5
20210727172133 75 10 3.0 7.0 0.00 0.00 0.00 26 1028.5
20210727171633 75 10 0.0 0.0 0.00 0.00 0.00 26 1028.5
20210727171133 74 10 0.0 6.0 0.00 0.00 0.00 25 1028.5
20210727170633 74 10 0.0 7.0 0.00 0.00 0.00 29 1028.4
20210727170133 73 10 0.0 2.0 0.00 0.00 0.00 29 1028.4
20210727165633 73 10 2.0 7.0 0.00 0.00 0.00 32 1028.3
20210727165133 73 10 2.0 6.0 0.00 0.00 0.00 29 1028.2
20210727164633 73 10 3.0 8.0 0.00 0.00 0.00 31 1028.1
20210727164133 73 10 2.0 5.0 0.00 0.00 0.00 31 1028.1
20210727163633 73 10 5.0 5.0 0.00 0.00 0.00 35 1028.0
20210727163133 72 10 0.0 2.0 0.00 0.00 0.00 34 1028.1
20210727162633 72 10 3.0 8.0 0.00 0.00 0.00 35 1028.0
20210727162133 73 10 4.0 8.0 0.00 0.00 0.00 34 1027.9
20210727161633 73 10 0.0 2.0 0.00 0.00 0.00 33 1028.0
20210727161133 72 10 0.0 4.0 0.00 0.00 0.00 35 1028.0
20210727160633 72 10 0.0 0.0 0.00 0.00 0.00 32 1027.9
20210727160133 72 10 0.0 1.0 0.00 0.00 0.00 35 1027.9
20210727155633 72 10 0.0 3.0 0.00 0.00 0.00 33 1027.8
20210727155133 71 10 0.0 0.0 0.00 0.00 0.00 34 1027.8
20210727154633 71 10 0.0 0.0 0.00 0.00 0.00 34 1027.8
20210727154133 71 10 0.0 5.0 0.00 0.00 0.00 34 1027.8
20210727153633 71 10 0.0 5.0 0.00 0.00 0.00 34 1027.9
20210727153133 71 10 2.0 2.0 0.00 0.00 0.00 34 1027.9
20210727152633 71 10 0.0 5.0 0.00 0.00 0.00 34 1027.9
20210727152133 71 10 0.0 0.0 0.00 0.00 0.00 32 1027.9
20210727151633 70 10 0.0 3.0 0.00 0.00 0.00 35 1027.7
20210727151133 70 10 0.0 0.0 0.00 0.00 0.00 35 1027.7
20210727150633 70 10 0.0 0.0 0.00 0.00 0.00 37 1027.7
20210727150133 70 10 0.0 3.0 0.00 0.00 0.00 37 1027.7
20210727145633 70 10 0.0 0.0 0.00 0.00 0.00 36 1027.8
20210727145133 70 10 0.0 0.0 0.00 0.00 0.00 37 1027.7
20210727144633 69 10 0.0 0.0 0.00 0.00 0.00 38 1027.8
20210727144133 69 10 0.0 3.0 0.00 0.00 0.00 35 1027.7
20210727143633 70 10 0.0 4.0 0.00 0.00 0.00 34 1027.7
20210727143133 70 10 0.0 3.0 0.00 0.00 0.00 32 1027.7
20210727142633 70 10 0.0 0.0 0.00 0.00 0.00 32 1027.8
20210727142133 69 10 0.0 0.0 0.00 0.00 0.00 33 1027.8
20210727141633 69 10 0.0 0.0 0.00 0.00 0.00 31 1027.7
20210727141133 68 10 0.0 0.0 0.00 0.00 0.00 27 1027.7
20210727140633 68 10 0.0 0.0 0.00 0.00 0.00 30 1027.7
20210727140133 67 10 0.0 0.0 0.00 0.00 0.00 28 1027.6
20210727135633 67 10 0.0 0.0 0.00 0.00 0.00 28 1027.6
20210727135133 67 10 0.0 0.0 0.00 0.00 0.00 29 1027.7
20210727134633 66 10 0.0 0.0 0.00 0.00 0.00 26 1027.6
20210727134133 66 10 0.0 0.0 0.00 0.00 0.00 28 1027.6
20210727133633 66 10 0.0 0.0 0.00 0.00 0.00 27 1027.6
20210727133133 65 10 0.0 0.0 0.00 0.00 0.00 27 1027.8
20210727132633 65 10 0.0 0.0 0.00 0.00 0.00 28 1027.7
20210727132133 64 10 0.0 0.0 0.00 0.00 0.00 29 1027.8
20210727131633 63 10 0.0 0.0 0.00 0.00 0.00 30 1027.8
20210727131133 63 10 0.0 0.0 0.00 0.00 0.00 28 1027.7
20210727130633 63 10 0.0 0.0 0.00 0.00 0.00 28 1027.8
20210727130133 62 10 0.0 0.0 0.00 0.00 0.00 30 1027.8
20210727125633 62 10 0.0 0.0 0.00 0.00 0.00 28 1027.8
20210727125133 61 10 0.0 0.0 0.00 0.00 0.00 27 1027.9
20210727124633 61 181 0.0 0.0 0.00 0.00 0.00 27 1028.0
20210727124133 60 10 0.0 0.0 0.00 0.00 0.00 29 1027.9
20210727123633 60 181 0.0 0.0 0.00 0.00 0.00 28 1027.9
20210727123133 60 181 0.0 0.0 0.00 0.00 0.00 28 1028.0
20210727122633 59 181 0.0 0.0 0.00 0.00 0.00 28 1028.1
20210727122133 59 181 0.0 0.0 0.00 0.00 0.00 29 1028.1
20210727121633 59 181 0.0 0.0 0.00 0.00 0.00 29 1028.2
20210727121133 59 10 0.0 0.0 0.00 0.00 0.00 29 1028.2
20210727120633 60 181 0.0 0.0 0.00 0.00 0.00 29 1028.2
20210727120133 60 181 0.0 0.0 0.00 0.00 0.00 29 1028.3
20210727115633 60 181 0.0 0.0 0.00 0.00 0.00 29 1028.2
20210727115133 60 181 0.0 0.0 0.00 0.00 0.00 29 1028.3
20210727114633 60 181 0.0 0.0 0.00 0.00 0.00 28 1028.3
20210727114133 60 181 0.0 0.0 0.00 0.00 0.00 28 1028.3
20210727113633 60 181 0.0 0.0 0.00 0.00 0.00 28 1028.3
20210727113133 60 181 0.0 0.0 0.00 0.00 0.00 28 1028.3
20210727112633 60 181 0.0 0.0 0.00 0.00 0.00 28 1028.2
20210727112133 60 181 0.0 0.0 0.00 0.00 0.00 29 1028.4
20210727111633 60 181 0.0 0.0 0.00 0.00 0.00 30 1028.3
20210727111133 60 181 0.0 0.0 0.00 0.00 0.00 31 1028.4
20210727110633 60 181 0.0 0.0 0.00 0.00 0.00 31 1028.4
20210727110133 61 181 0.0 0.0 0.00 0.00 0.00 31 1028.6
20210727105633 61 181 0.0 0.0 0.00 0.00 0.00 34 1028.7
20210727105133 61 181 0.0 0.0 0.00 0.00 0.00 34 1028.7
20210727104633 61 181 0.0 0.0 0.00 0.00 0.00 34 1028.8
20210727104133 61 181 0.0 0.0 0.00 0.00 0.00 33 1028.8
20210727103633 61 181 0.0 0.0 0.00 0.00 0.00 33 1028.7
20210727103133 61 181 0.0 0.0 0.00 0.00 0.00 33 1028.7
20210727102633 60 181 0.0 0.0 0.00 0.00 0.00 34 1028.8
20210727102133 60 181 0.0 0.0 0.00 0.00 0.00 35 1029.0
20210727101633 61 181 0.0 0.0 0.00 0.00 0.00 36 1029.0
20210727101133 61 181 0.0 0.0 0.00 0.00 0.00 38 1029.0
20210727100633 61 181 0.0 0.0 0.00 0.00 0.00 38 1029.1
20210727100133 61 181 0.0 0.0 0.00 0.00 0.00 38 1029.1
20210727095633 61 181 0.0 0.0 0.00 0.00 0.00 37 1029.3
20210727095133 61 181 0.0 0.0 0.00 0.00 0.00 37 1029.3
20210727094633 61 181 0.0 0.0 0.00 0.00 0.00 40 1029.2
20210727094133 61 181 0.0 0.0 0.00 0.00 0.00 41 1029.3
20210727093633 61 181 0.0 0.0 0.00 0.00 0.00 40 1029.3
20210727093133 61 180 0.0 0.0 0.00 0.00 0.00 40 1029.4
20210727092633 61 181 0.0 0.0 0.00 0.00 0.00 40 1029.4
20210727092133 61 181 0.0 0.0 0.00 0.00 0.00 40 1029.5
20210727091633 61 181 0.0 6.0 0.00 0.00 0.00 41 1029.6
20210727091133 61 181 0.0 0.0 0.00 0.00 0.00 41 1029.7
20210727090633 61 181 0.0 0.0 0.00 0.00 0.00 42 1029.9
20210727090133 61 10 0.0 0.0 0.00 0.00 0.00 42 1029.9
20210727085633 61 181 0.0 5.0 0.00 0.00 0.00 42 1030.0
20210727085133 61 10 0.0 0.0 0.00 0.00 0.00 43 1030.1
20210727084633 61 10 0.0 0.0 0.00 0.00 0.00 43 1030.2
20210727084133 61 10 0.0 0.0 0.00 0.00 0.00 44 1030.3
20210727083633 61 10 0.0 0.0 0.00 0.00 0.00 44 1030.4
20210727083133 61 182 0.0 0.0 0.00 0.00 0.00 44 1030.4
20210727082633 61 10 0.0 0.0 0.00 0.00 0.00 44 1030.5
20210727082133 61 10 0.0 0.0 0.00 0.00 0.00 44 1030.5
20210727081633 61 10 0.0 6.0 0.00 0.00 0.00 44 1030.6
20210727081133 61 10 0.0 0.0 0.00 0.00 0.00 44 1030.7
20210727080633 61 10 0.0 6.0 0.00 0.00 0.00 44 1030.7
20210727080133 61 10 0.0 5.0 0.00 0.00 0.00 44 1030.9
20210727075633 61 10 0.0 0.0 0.00 0.00 0.00 44 1030.9